Retour au catalogue

THORAD DELTA 1 DEB

ActifSSO
NORAD 8168·DEBRIS·🇺🇸 United States

Lancé Nov 15, 1974 depuis Vandenberg Space Force Base

Loading…

Prochains Passages (prochaines 24 heures)

TLE

FraisSource: Space-Track

Époque: Sep 14, 2026, 09:41 UTC

1 08168U 74089AJ  26257.40409193 -.00000031  00000-0  98206-4 0  9997
2 08168 101.9733 225.4059 0021439 111.3931  41.0923 12.52752200369715

Suivez THORAD DELTA 1 DEB en temps réel avec AllMySat

Download on the App Store